Showing default

ARASE (ERG), 41896

Orbit data source: Space-Track

ARASE (ERG), 41896 is a payload satellite owned by ISAS/JAXA (JP) in HEO that was launched on Tue, 20 Dec 2016 UTC via an EPSILON launch vehicle from the Kagoshima Space Center University Of Tokyo (KSCUT). Payload-class satellites include a variety of spacecraft equipped with specific instruments for various scientific and technological missions. These include communications satellites like Starlink; space stations such as the ISS; scientific satellites like the Hubble; Earth observation satellites from companies like Planet Labs, Umbra, and HawkEye 360; GPS; miniature CubeSats for education and research; and military/defense satellites.

Loading next visibility...
Identifier
41896, 2016-080A
Orbit
HEO
Last TLE update
3 days ago
Origin
Manufacturer
ISAS/JAXA
Mission
Operational Civil Science
Bus & Motor
SPRINT-B, Unknown motor
Mass
350 kg wet, 350 kg dry
Launch date (UTC)
2016-12-20 (9 years ago)
Launch vehicle
EPSILON
Launch site
Kagoshima Space Center University Of Tokyo (KSCUT)
Object type
Payload
Rocket body
Debris
Shape & HBR
Box + 4 Pan + 6 Ant, Unknown HBR
Radar Cross Section
33.836 m², Large (>1 m²)

Expand to show TLE details & history

TLE from 3 days ago
0 ARASE (ERG)
1 41896U 16080A   25189.95062893 -.00000185  00000-0 -37599-4 0  9993
2 41896  31.4698 144.6685 6962823 197.8725 113.2804  2.57130908 79448
Epoch: 2025-07-08T22:48Z
TLE epoch observation values (Epoch: 2025-07-08T22:48:54.339Z)
Latitude
-0.00003°
Longitude
-124.72958°
Altitude
28,018.964 km
Speed
2.338 km/s
True Right ascension
09h 38m 32s
True Declination
0° 00' 00"
Sunlit
Object was in daylight at epoch
Visualization orbit readout
Latitude
-16.43562°
Longitude
-154.66134°
Altitude
13,795.919 km
Speed
4.67 km/s
Apparent Right ascension
06h 41m 13s
Apparent Declination
-28° 43' 14"
Sunlit
Object is in daylight
Visualization observer readout
Local Sidereal Time
11:57:59
Azimuth
241.175° WSW
Elevation
-10.5°
Doppler factor
1
Orbital elements
Apogee altitude
31,803.782 km
Perigee altitude
458.299 km
Semi-major axis
22,509.177 km
Eccentricity
0.69628
Inclination
31.4698°
RAAN
144.6685°
Arg. of periapsis
197.8725°
True anomaly
Unknown
Mean anomaly
113.2804°
Eccentric anomaly
Unknown
Mean motion
0.64269 °/min
Orbital period
560.14 mins
BSTAR
-0.000037599
Loading maneuver chart data...
Loading SW <> Apogee altitude chart data...
Loading historical data...
Loading historical data...
Loading historical data...
Loading historical data...
Loading historical data...
Loading historical data...
Loading historical data...
Other satellites on launch #80 in the year 2016 (2016-12-20 UTC)

ARASE (ERG) Visibility forecast

Observer location: undefined°, undefined°

Span
Click to sort rows by Start time (UTC) header in descending order
Start Az.
Max El. time (UTC)
Max El. Az.
Max El.
End time (UTC)
End Az.
119 mins2025-07-12 01:10:57.286Z249.663° W2025-07-12 02:02:57.286Z257.039° W11.347°2025-07-12 03:09:57.286Z266.571° W
64 mins2025-07-12 06:37:57.286Z286.223° WNW2025-07-12 07:33:57.286Z240.473° WSW26.239°2025-07-12 07:41:57.286Z185.172° SSW
328 mins2025-07-12 18:09:57.286Z166.887° S2025-07-12 23:37:57.286Z188.881° SSW41.985°2025-07-12 23:37:57.286Z188.881° SSW
|